Powrót do katalogu

STARLINK-33607

AktywnyŁącznośćVLEO
NORAD 63323·PAYLOAD·🇺🇸 United States

Wystrzelony Mar 18, 2025 z Cape Canaveral Space Force Station

Loading…

Następne Przeloty (najbliższe 24 godziny)

TLE

ŚwieżeSource: CelesTrak SupGP

Epoka: Sep 14, 2026, 22:20 UTC

1 63323C 25057S   26257.93104167  .00042130  00000+0  15261-2 0  2572
2 63323  43.0010  42.0861 0001440 272.8235 310.1620 15.27553847    17

Śledź STARLINK-33607 w czasie rzeczywistym z AllMySat

Download on the App Store